DW8492 Weather Reports


time (UTC)temp
C
wind
direction
speed
KPH
gust
KPH
rain 1hr
cm
rain 24hr
cm
rain mn
cm
humidity
%
barometer
mb
20260503190040 13 263 4.8 12.9 0.00 0.00 0.00 44 1015.3
20260503184505 14 317 1.6 11.3 0.00 0.00 0.00 43 1015.4
20260503183057 13 255 3.2 14.5 0.00 0.00 0.00 43 1015.6
20260503181503 12 258 6.4 16.1 0.00 0.00 0.00 44 1015.8
20260503180044 13 266 3.2 12.9 0.00 0.00 0.00 46 1016.0
20260503174610 12 242 1.6 11.3 0.00 0.00 0.00 47 1016.2
20260503173103 12 236 4.8 11.3 0.00 0.00 0.00 47 1016.3
20260503171501 12 10 6.4 19.3 0.00 0.00 0.00 42 1016.5
20260503150107 9 242 3.2 16.1 0.00 0.03 0.00 52 1017.6
20260503120125 1 226 3.2 8.0 0.00 0.08 0.00 95 1017.8
20260503100106 -2 360 0.0 0.0 0.00 0.08 0.00 94 1016.9
20260503081537 -1 360 0.0 0.0 0.00 0.08 0.00 93 1016.7
20260503071618 0 360 0.0 0.0 0.00 0.08 0.00 93 1016.5
20260503054646 0 360 0.0 0.0 0.00 0.08 0.00 92 1016.7
20260503053039 0 360 0.0 0.0 0.00 0.08 0.00 92 1016.8
20260503051609 0 360 0.0 0.0 0.00 0.08 0.00 91 1016.8
20260503044529 0 360 0.0 0.0 0.00 0.08 0.00 91 1017.0
20260503043110 0 360 0.0 0.0 0.00 0.08 0.00 90 1017.0
20260503041536 0 360 0.0 0.0 0.00 0.08 0.00 89 1017.0
20260503040004 0 360 0.0 0.0 0.00 0.08 0.00 88 1017.0
20260503034603 0 360 0.0 0.0 0.00 0.08 0.08 87 1017.0
20260503033007 0 360 0.0 0.0 0.00 0.08 0.08 86 1016.9
20260503031550 1 360 0.0 0.0 0.00 0.08 0.08 85 1017.0
20260503030015 1 360 0.0 0.0 0.00 0.08 0.08 85 1017.0
20260503024551 2 360 0.0 0.0 0.00 0.08 0.08 84 1017.0
20260503023011 2 360 0.0 0.0 0.00 0.08 0.08 83 1017.2
20260503021546 2 360 0.0 0.0 0.00 0.08 0.08 82 1017.2
20260503020011 2 360 0.0 0.0 0.00 0.08 0.08 79 1017.1
20260503014601 2 360 0.0 0.0 0.00 0.08 0.08 76 1017.1
20260503013048 3 360 0.0 0.0 0.00 0.08 0.08 74 1017.1
20260503011508 3 360 0.0 0.0 0.00 0.08 0.08 73 1017.1
20260503010048 3 360 0.0 4.8 0.00 0.08 0.08 72 1017.0
20260503004511 4 19 0.0 4.8 0.00 0.08 0.08 73 1016.9
20260503003049 4 9 1.6 8.0 0.00 0.08 0.08 70 1016.6
20260503000016 5 345 3.2 8.0 0.00 0.08 0.08 68 1016.5
20260502234556 5 355 4.8 12.9 0.00 0.15 0.08 68 1016.4
20260502233023 5 5 1.6 8.0 0.00 0.15 0.08 73 1016.2
20260502231609 5 355 1.6 11.3 0.00 0.15 0.08 74 1016.2
20260502230019 5 232 1.6 6.4 0.00 0.15 0.08 74 1016.3
20260502224556 5 345 1.6 6.4 0.00 0.28 0.08 74 1016.3
20260502223026 5 338 1.6 6.4 0.00 0.28 0.08 74 1016.3
20260502221513 5 228 3.2 6.4 0.00 0.28 0.08 73 1016.2
20260502220031 5 355 1.6 6.4 0.00 0.28 0.08 72 1016.2
20260502214600 5 286 4.8 12.9 0.00 0.30 0.08 73 1016.1
20260502213021 5 11 4.8 9.7 0.00 0.30 0.08 73 1016.1
20260502211601 6 43 3.2 14.5 0.00 0.30 0.08 71 1015.8
20260502210033 6 22 4.8 12.9 0.00 0.30 0.08 73 1015.8
20260502204607 5 13 4.8 11.3 0.00 0.38 0.08 75 1015.8
20260502203029 5 49 4.8 9.7 0.00 0.38 0.08 78 1015.8
20260502201609 5 30 4.8 11.3 0.00 0.38 0.08 79 1016.0
20260502200032 5 351 6.4 16.1 0.00 0.38 0.08 78 1016.0
20260502194617 5 34 3.2 14.5 0.00 0.46 0.08 76 1016.0
20260502193026 5 5 4.8 12.9 0.00 0.46 0.08 76 1016.0
20260502191530 5 26 1.6 14.5 0.00 0.46 0.08 76 1016.1